Regional Weather Roundup
Issued by NWS State College, PA

Home | Current Version | Previous Version | Text Only | Print | Product List | Glossary Off
Versions: 1 2 3 4 5 6 7 8 9 10 11 12 13 14 15 16 17 18 19 20 21 22 23 24 25 26 27 28 29 30 31 32 33 34 35 36 37 38 39 40 41 42 43 44 45 46 47 48 49 50

000
ASUS41 KCTP 301110
RWRCTP

REGIONAL WEATHER ROUNDUP
NATIONAL WEATHER SERVICE STATE COLLEGE PA
700 AM EDT MON MAY 30 2016

Note: "fair" indicates few or no clouds below 12,000 feet with no
significant weather and/or obstructions to visibility.

* = STATION THAT DOES NOT REPORT PRECIPITATION /E.G. RAIN...SNOW...ETC/
    THUNDER OR FOG.

PAZ002>004-007>009-013>016-020>023-029>032-301200-
WESTERN PENNSYLVANIA

CITY           SKY/WX    TMP DP  RH WIND       PRES   REMARKS
ERIE           SUNNY     68  61  78 SW7       29.99R
MEADVILLE      SUNNY     62  62 100 CALM      30.02S FOG
FRANKLIN*      MOSUNNY   61  57  88 SW3       30.04F
NEW CASTLE     FOG       61  61 100 CALM      30.03R VSB 3/4
BEAVER COUNTY  NOT AVBL
BUTLER*        CLOUDY   N/A N/A N/A CALM      30.05S
PITTSBURGH INT CLOUDY    63  59  87 CALM      30.02S FOG
PITTSBURGH     MOSUNNY   62  60  93 S7        30.02S FOG
INDIANA*       SUNNY     59  59 100 CALM      30.08R
LATROBE        MOSUNNY   57  57 100 CALM      30.05R FOG
WASHINGTON CO* MOSUNNY   59  57  94 CALM      30.04S
$$

PAZ004>006-010>012-017>019-024>028-033>037-041-042-045-046-049>053-301200-
CENTRAL PENNSYLVANIA

CITY           SKY/WX    TMP DP  RH WIND       PRES   REMARKS
BRADFORD       MOSUNNY   60  57  89 SW5       30.05R
DUBOIS         MOSUNNY   59  56  89 CALM      30.04S FOG
CLEARFIELD     FOG       59  57  93 CALM      30.05S VSB<1/4
JOHNSTOWN      CLOUDY    60  54  80 SW7       30.07R
ALTOONA        CLOUDY    61  59  93 CALM      30.05S FOG
STATE COLLEGE  SUNNY     61  59  94 SW5       30.03S
WILLIAMSPORT   CLOUDY    65  60  84 E3        30.01R
SELINSGROVE    CLOUDY    65  62  90 CALM      30.02S
FT INDIANTOWN  CLOUDY    64  64 100 N1        30.03R
CAPITAL CITY   CLOUDY    66  62  87 W3        30.03R
HARRISBURG     CLOUDY    66  63  90 NW3       30.02R
YORK           CLOUDY    64  62  93 CALM      30.03R
$$

PAZ038>040-043-044-047-048-054-055-060>062-067>071-301200-
EASTERN PENNSYLVANIA

CITY           SKY/WX    TMP DP  RH WIND       PRES   REMARKS
SCRANTON       CLOUDY    63  62  97 SW5       30.03R FOG
MOUNT POCONO   NOT AVBL
ALLENTOWN      CLOUDY    67  64  90 CALM      30.02R
QUAKERTOWN*    CLOUDY    66  66 100 CALM      30.03S
READING        MOSUNNY   67  64  90 CALM      30.02R
LANCASTER      PTSUNNY   65  64  97 CALM      30.02S
COATESVILLE    CLOUDY    66  64  94 NW5       30.04S FOG
POTTSTOWN      CLOUDY    66  66 100 NW3       30.03S
BLUE BELL      CLOUDY    66  66 100 CALM      30.01R
DOYLESTOWN     LGT RAIN  66  66 100 CALM      30.01S FOG
WILLOW GROVE   NOT AVBL
NORTH PHILA    CLOUDY    70  67  90 CALM      30.02S
PHILADELPHIA   CLOUDY    72  69  90 NW5       30.01S
$$



USA.gov is the U.S. government's official web portal to all federal, state and local government web resources and services.